Regional Weather Roundup
Issued by NWS

Home | Current Version | Previous Version | Graphics & Text | Print | Product List | Glossary On
Versions: 1 2 3 4 5 6 7 8 9 10 11 12 13 14 15 16 17 18 19 20 21 22 23 24 25 26 27 28 29 30 31 32 33 34 35 36 37 38 39 40 41 42 43 44 45 46 47 48 49 50
000
ASUS43 KTOP 280659
RWRKS

WEATHER ROUNDUP FOR KANSAS
NATIONAL WEATHER SERVICE GOODLAND KS
200 AM CDT SAT MAR 28 2015

NOTE:  "FAIR" INDICATES FEW OR NO CLOUDS BELOW 12,000 FEET WITH NO
SIGNIFICANT WEATHER AND/OR OBSTRUCTIONS TO VISIBILITY.

KSZ001>006-013>018-027>032-041>047-280800-
NORTHWEST KANSAS

CITY           SKY/WX    TMP DP  RH WIND       PRES   REMARKS
GOODLAND       CLEAR     46  33  60 W13       30.02F
HAYS           MOCLDY    43  28  56 E7        29.97F
HILL CITY      PTCLDY    39  32  76 N6        29.97S
RUSSELL        PTCLDY    40  33  76 SE8       29.96F
$$

KSZ061>065-074>080-084>089-280800-
SOUTHWEST KANSAS

CITY           SKY/WX    TMP DP  RH WIND       PRES   REMARKS
DODGE CITY     CLEAR     50  34  54 SW14      29.99F
ELKHART          N/A     54  31  41 SW12        N/A
GARDEN CITY    CLEAR     45  36  70 W8        30.00S
GREAT BEND     PTCLDY    45  34  65 S5        29.98F
LIBERAL        CLEAR     50  34  53 SW13      30.03F
$$

KSZ066>073-081>083-090>101-280800-
SOUTHEAST KANSAS

CITY           SKY/WX    TMP DP  RH WIND       PRES   REMARKS
CHANUTE        PTCLDY    41  27  57 SE9       30.09F
COFFEYVILLE    MOCLDY    41  33  73 CALM      30.11F
HUTCHINSON     PTCLDY    43  31  62 SE9       30.02F
MEDICINE LODGE   N/A     42  35  76 SE5       30.02F
NEWTON         CLOUDY    45  27  49 SE10      30.05F
PARSONS        MOCLDY    43  30  60 SE3       30.11F
WICHITA INTL   MOCLDY    45  31  58 SE9       30.03F
WICHITA JABRA  CLOUDY    44  33  65 S9        30.04F
WINFIELD       CLOUDY    46  31  55 SE5       30.07F
$$

KSZ007>012-019>026-033>040-048>060-102>105-280800-
NORTHEAST KANSAS

CITY           SKY/WX    TMP DP  RH WIND       PRES   REMARKS
CONCORDIA      PTCLDY    38  25  59 E7        30.02S
EMPORIA        CLOUDY    38  24  57 SE6       30.07F
LAWRENCE       CLOUDY    39  25  57 SE7       30.11S
MANHATTAN      MOCLDY    38  22  52 SE5       30.07S
OLATHE IND     CLOUDY    39  24  55 SE8       30.11F
OLATHE EXE     CLOUDY    39  21  48 SE6       30.10S
SALINA         CLOUDY    46  31  55 SE7       30.03F
TOPEKA BILLARD CLOUDY    39  24  55 SE6       30.10S
TOPEKA FORBES  CLOUDY    40  24  53 SE7       30.08F
$$


USA.gov is the U.S. government's official web portal to all federal, state and local government web resources and services.